| time (UTC) | temp C | wind direction | speed KPH | gust KPH | rain 1hr cm | rain 24hr cm | rain mn cm | humidity % | barometer mb |
| 20260508102616 | 18 | 91 | 1.6 | 8.0 | 0.00 | 0.00 | 0.00 | 54 | 1016.1 |
| 20260508102116 | 17 | 107 | 1.6 | 8.0 | 0.00 | 0.00 | 0.00 | 56 | 1016.2 |
| 20260508101617 | 17 | 118 | 3.2 | 11.3 | 0.00 | 0.00 | 0.00 | 54 | 1016.3 |
| 20260508101114 | 17 | 76 | 3.2 | 11.3 | 0.00 | 0.00 | 0.00 | 54 | 1016.3 |
| 20260508100850 | 17 | 196 | 3.2 | 9.7 | 0.00 | 0.00 | 0.00 | 53 | 1016.4 |
| 20260508100113 | 17 | 67 | 1.6 | 6.4 | 0.00 | 0.00 | 0.00 | 53 | 1016.4 |
| 20260508095853 | 17 | 30 | 1.6 | 6.4 | 0.00 | 0.00 | 0.00 | 53 | 1016.4 |
| 20260508095113 | 17 | 210 | 1.6 | 6.4 | 0.00 | 0.00 | 0.00 | 55 | 1016.3 |
| 20260508094609 | 17 | 76 | 1.6 | 6.4 | 0.00 | 0.00 | 0.00 | 59 | 1016.3 |
| 20260508094110 | 16 | 245 | 1.6 | 6.4 | 0.00 | 0.00 | 0.00 | 60 | 1016.2 |
| 20260508093607 | 16 | 329 | 1.6 | 6.4 | 0.00 | 0.00 | 0.00 | 62 | 1016.3 |
| 20260508093106 | 16 | 132 | 1.6 | 9.7 | 0.00 | 0.00 | 0.00 | 63 | 1016.2 |
| 20260508092604 | 16 | 107 | 1.6 | 9.7 | 0.00 | 0.00 | 0.00 | 68 | 1016.2 |
| 20260508092347 | 15 | 103 | 1.6 | 6.4 | 0.00 | 0.00 | 0.00 | 69 | 1016.2 |
| 20260508091602 | 15 | 112 | 1.6 | 6.4 | 0.00 | 0.00 | 0.00 | 72 | 1016.2 |
| 20260508091103 | 15 | 68 | 1.6 | 4.8 | 0.00 | 0.00 | 0.00 | 73 | 1016.3 |
| 20260508090603 | 14 | 355 | 1.6 | 4.8 | 0.00 | 0.00 | 0.00 | 72 | 1016.3 |
| 20260508090105 | 14 | 187 | 1.6 | 4.8 | 0.00 | 0.00 | 0.00 | 72 | 1016.3 |
| 20260508085603 | 14 | 203 | 1.6 | 4.8 | 0.00 | 0.00 | 0.00 | 73 | 1016.4 |
| 20260508085341 | 14 | 92 | 1.6 | 11.3 | 0.00 | 0.00 | 0.00 | 73 | 1016.4 |
| 20260508084603 | 14 | 187 | 1.6 | 11.3 | 0.00 | 0.00 | 0.00 | 73 | 1016.4 |
| 20260508084102 | 14 | 177 | 1.6 | 9.7 | 0.00 | 0.00 | 0.00 | 75 | 1016.4 |
| 20260508083602 | 13 | 153 | 1.6 | 4.8 | 0.00 | 0.00 | 0.00 | 75 | 1016.3 |
| 20260508083102 | 13 | 169 | 1.6 | 6.4 | 0.00 | 0.00 | 0.00 | 76 | 1016.3 |
| 20260508082604 | 13 | 217 | 0.0 | 6.4 | 0.00 | 0.00 | 0.00 | 77 | 1016.2 |
| 20260508082104 | 13 | 115 | 1.6 | 6.4 | 0.00 | 0.00 | 0.00 | 78 | 1016.2 |
| 20260508081604 | 13 | 141 | 1.6 | 8.0 | 0.00 | 0.00 | 0.00 | 79 | 1016.2 |
| 20260508081102 | 13 | 161 | 1.6 | 11.3 | 0.00 | 0.00 | 0.00 | 80 | 1016.2 |
| 20260508080603 | 12 | 65 | 1.6 | 11.3 | 0.00 | 0.00 | 0.00 | 80 | 1016.2 |
| 20260508080104 | 12 | 93 | 1.6 | 4.8 | 0.00 | 0.00 | 0.00 | 81 | 1016.3 |
| 20260508075844 | 12 | 208 | 1.6 | 4.8 | 0.00 | 0.00 | 0.00 | 82 | 1016.3 |
| 20260508075442 | 12 | 149 | 1.6 | 4.8 | 0.00 | 0.00 | 0.00 | 84 | 1016.3 |
| 20260508075155 | 12 | 96 | 1.6 | 4.8 | 0.00 | 0.00 | 0.00 | 84 | 1016.3 |
| 20260508075141 | 12 | 44 | 0.0 | 4.8 | 0.00 | 0.00 | 0.00 | 83 | 1016.3 |
| 20260508073604 | 12 | 131 | 1.6 | 6.4 | 0.00 | 0.00 | 0.00 | 85 | 1016.2 |
| 20260508073344 | 12 | 190 | 1.6 | 6.4 | 0.00 | 0.00 | 0.00 | 86 | 1016.2 |
| 20260508072602 | 11 | 68 | 1.6 | 4.8 | 0.00 | 0.00 | 0.00 | 87 | 1016.2 |
| 20260508072102 | 11 | 18 | 1.6 | 6.4 | 0.00 | 0.00 | 0.00 | 88 | 1016.2 |
| 20260508071604 | 11 | 128 | 1.6 | 6.4 | 0.00 | 0.00 | 0.00 | 89 | 1016.2 |
| 20260508071346 | 11 | 170 | 0.0 | 4.8 | 0.00 | 0.00 | 0.00 | 91 | 1016.2 |
| 20260508070603 | 10 | 28 | 0.0 | 4.8 | 0.00 | 0.00 | 0.00 | 91 | 1016.1 |
| 20260508070345 | 10 | 331 | 0.0 | 4.8 | 0.00 | 0.00 | 0.00 | 92 | 1016.1 |
| 20260508065603 | 10 | 161 | 1.6 | 4.8 | 0.00 | 0.00 | 0.00 | 92 | 1016.2 |
| 20260508065102 | 10 | 30 | 1.6 | 4.8 | 0.00 | 0.00 | 0.00 | 93 | 1016.1 |
| 20260508064602 | 10 | 73 | 0.0 | 4.8 | 0.00 | 0.00 | 0.00 | 94 | 1016.1 |
| 20260508064102 | 9 | 184 | 0.0 | 4.8 | 0.00 | 0.00 | 0.00 | 95 | 1016.1 |
| 20260508063603 | 9 | 74 | 0.0 | 3.2 | 0.00 | 0.00 | 0.00 | 95 | 1016.1 |
| 20260508063343 | 8 | 74 | 0.0 | 3.2 | 0.00 | 0.00 | 0.00 | 95 | 1016.1 |
| 20260508062844 | 8 | 355 | 0.0 | 3.2 | 0.00 | 0.00 | 0.00 | 95 | 1016.0 |
| 20260508062103 | 7 | 355 | 0.0 | 1.6 | 0.00 | 0.00 | 0.00 | 95 | 1016.0 |
| 20260508061605 | 7 | 355 | 0.0 | 1.6 | 0.00 | 0.00 | 0.00 | 95 | 1015.9 |
| 20260508061104 | 7 | 355 | 0.0 | 1.6 | 0.00 | 0.00 | 0.00 | 95 | 1015.9 |
| 20260508060602 | 7 | 355 | 0.0 | 1.6 | 0.00 | 0.00 | 0.00 | 95 | 1016.0 |
| 20260508055604 | 7 | 355 | 0.0 | 3.2 | 0.00 | 0.00 | 0.00 | 95 | 1016.0 |
| 20260508055340 | 7 | 355 | 0.0 | 1.6 | 0.00 | 0.00 | 0.00 | 95 | 1015.9 |
| 20260508054603 | 6 | 355 | 0.0 | 1.6 | 0.00 | 0.00 | 0.00 | 95 | 1015.9 |
| 20260508054344 | 6 | 355 | 0.0 | 1.6 | 0.00 | 0.00 | 0.00 | 95 | 1015.9 |
| 20260508053603 | 6 | 355 | 0.0 | 1.6 | 0.00 | 0.00 | 0.00 | 95 | 1015.9 |
| 20260508053103 | 6 | 355 | 0.0 | 1.6 | 0.00 | 0.00 | 0.00 | 95 | 1015.8 |
| 20260508052843 | 6 | 355 | 0.0 | 1.6 | 0.00 | 0.00 | 0.00 | 95 | 1015.9 |
| 20260508052341 | 6 | 355 | 0.0 | 1.6 | 0.00 | 0.00 | 0.00 | 95 | 1015.8 |
| 20260508051602 | 5 | 355 | 0.0 | 0.0 | 0.00 | 0.00 | 0.00 | 94 | 1015.8 |
| 20260508051343 | 5 | 355 | 0.0 | 0.0 | 0.00 | 0.00 | 0.00 | 94 | 1015.8 |
| 20260508050601 | 5 | 355 | 0.0 | 0.0 | 0.00 | 0.00 | 0.00 | 94 | 1015.8 |
| 20260508050104 | 5 | 355 | 0.0 | 0.0 | 0.00 | 0.00 | 0.00 | 94 | 1015.8 |
| 20260508045603 | 5 | 355 | 0.0 | 0.0 | 0.00 | 0.00 | 0.00 | 93 | 1015.8 |
| 20260508045102 | 5 | 355 | 0.0 | 0.0 | 0.00 | 0.00 | 0.00 | 93 | 1015.8 |
| 20260508044604 | 5 | 355 | 0.0 | 0.0 | 0.00 | 0.00 | 0.00 | 93 | 1015.8 |
| 20260508044104 | 5 | 355 | 0.0 | 0.0 | 0.00 | 0.00 | 0.00 | 93 | 1015.7 |
| 20260508043603 | 5 | 355 | 0.0 | 0.0 | 0.00 | 0.00 | 0.00 | 93 | 1015.6 |
| 20260508043102 | 5 | 355 | 0.0 | 0.0 | 0.00 | 0.00 | 0.00 | 93 | 1015.7 |
| 20260508042603 | 5 | 355 | 0.0 | 0.0 | 0.00 | 0.00 | 0.00 | 93 | 1015.7 |
| 20260508042105 | 5 | 355 | 0.0 | 0.0 | 0.00 | 0.00 | 0.00 | 93 | 1015.6 |
| 20260508041603 | 5 | 355 | 0.0 | 0.0 | 0.00 | 0.00 | 0.00 | 93 | 1015.6 |
| 20260508041340 | 5 | 355 | 0.0 | 0.0 | 0.00 | 0.00 | 0.00 | 93 | 1015.6 |
| 20260508040604 | 5 | 355 | 0.0 | 0.0 | 0.00 | 0.00 | 0.00 | 93 | 1015.6 |
| 20260508035602 | 5 | 355 | 0.0 | 0.0 | 0.00 | 0.00 | 0.00 | 93 | 1015.5 |
| 20260508035340 | 5 | 355 | 0.0 | 0.0 | 0.00 | 0.00 | 0.00 | 93 | 1015.5 |
| 20260508034601 | 5 | 355 | 0.0 | 0.0 | 0.00 | 0.00 | 0.00 | 93 | 1015.5 |
| 20260508034102 | 5 | 355 | 0.0 | 0.0 | 0.00 | 0.00 | 0.00 | 93 | 1015.5 |
| 20260508033604 | 5 | 355 | 0.0 | 0.0 | 0.00 | 0.00 | 0.00 | 92 | 1015.5 |
| 20260508033338 | 5 | 355 | 0.0 | 0.0 | 0.00 | 0.00 | 0.00 | 92 | 1015.5 |
| 20260508032604 | 5 | 355 | 0.0 | 0.0 | 0.00 | 0.00 | 0.00 | 92 | 1015.5 |
| 20260508032104 | 5 | 355 | 0.0 | 0.0 | 0.00 | 0.00 | 0.00 | 92 | 1015.5 |
| 20260508031601 | 5 | 355 | 0.0 | 0.0 | 0.00 | 0.00 | 0.00 | 92 | 1015.6 |
| 20260508031341 | 5 | 355 | 0.0 | 0.0 | 0.00 | 0.00 | 0.00 | 92 | 1015.6 |
| 20260508030601 | 6 | 355 | 0.0 | 0.0 | 0.00 | 0.00 | 0.00 | 92 | 1015.6 |
| 20260508030104 | 6 | 355 | 0.0 | 0.0 | 0.00 | 0.00 | 0.00 | 92 | 1015.5 |
| 20260508025605 | 6 | 355 | 0.0 | 0.0 | 0.00 | 0.00 | 0.00 | 92 | 1015.6 |
| 20260508025103 | 6 | 355 | 0.0 | 0.0 | 0.00 | 0.00 | 0.00 | 92 | 1015.6 |
| 20260508024603 | 6 | 355 | 0.0 | 0.0 | 0.00 | 0.00 | 0.00 | 92 | 1015.7 |
| 20260508024104 | 6 | 355 | 0.0 | 0.0 | 0.00 | 0.00 | 0.00 | 92 | 1015.6 |
| 20260508023603 | 6 | 355 | 0.0 | 0.0 | 0.00 | 0.00 | 0.00 | 92 | 1015.6 |
| 20260508023102 | 6 | 355 | 0.0 | 0.0 | 0.00 | 0.00 | 0.00 | 92 | 1015.6 |
| 20260508022832 | 6 | 355 | 0.0 | 0.0 | 0.00 | 0.00 | 0.00 | 92 | 1015.6 |
| 20260508022050 | 6 | 355 | 0.0 | 0.0 | 0.00 | 0.00 | 0.00 | 92 | 1015.5 |
| 20260508021542 | 6 | 355 | 0.0 | 0.0 | 0.00 | 0.00 | 0.00 | 92 | 1015.5 |
| 20260508021036 | 6 | 355 | 0.0 | 0.0 | 0.00 | 0.00 | 0.00 | 92 | 1015.5 |
| 20260508020537 | 6 | 355 | 0.0 | 0.0 | 0.00 | 0.00 | 0.00 | 92 | 1015.5 |
| 20260508020034 | 6 | 355 | 0.0 | 0.0 | 0.00 | 0.00 | 0.00 | 92 | 1015.5 |
| 20260508015532 | 6 | 355 | 0.0 | 0.0 | 0.00 | 0.00 | 0.00 | 92 | 1015.5 |
| 20260508015033 | 7 | 355 | 0.0 | 0.0 | 0.00 | 0.00 | 0.00 | 91 | 1015.5 |
| 20260508014531 | 7 | 355 | 0.0 | 0.0 | 0.00 | 0.00 | 0.00 | 91 | 1015.5 |
| 20260508014033 | 7 | 355 | 0.0 | 0.0 | 0.00 | 0.00 | 0.00 | 91 | 1015.6 |
| 20260508013532 | 7 | 355 | 0.0 | 0.0 | 0.00 | 0.00 | 0.00 | 91 | 1015.6 |
| 20260508013032 | 7 | 355 | 0.0 | 0.0 | 0.00 | 0.00 | 0.00 | 91 | 1015.6 |
| 20260508012534 | 7 | 355 | 0.0 | 0.0 | 0.00 | 0.00 | 0.00 | 90 | 1015.6 |
| 20260508012032 | 7 | 355 | 0.0 | 0.0 | 0.00 | 0.00 | 0.00 | 90 | 1015.6 |
| 20260508011531 | 7 | 355 | 0.0 | 0.0 | 0.00 | 0.00 | 0.00 | 90 | 1015.6 |
| 20260508011032 | 7 | 355 | 0.0 | 0.0 | 0.00 | 0.00 | 0.00 | 90 | 1015.5 |
| 20260508010825 | 8 | 355 | 0.0 | 0.0 | 0.00 | 0.00 | 0.00 | 90 | 1015.5 |
| 20260508010820 | 7 | 355 | 0.0 | 0.0 | 0.00 | 0.00 | 0.00 | 90 | 1015.5 |
| 20260508005530 | 8 | 355 | 0.0 | 0.0 | 0.00 | 0.00 | 0.00 | 90 | 1015.4 |
| 20260508005049 | 8 | 355 | 0.0 | 0.0 | 0.00 | 0.00 | 0.00 | 90 | 1015.4 |
| 20260508005042 | 8 | 355 | 0.0 | 0.0 | 0.00 | 0.00 | 0.00 | 90 | 1015.4 |
| 20260508004311 | 8 | 355 | 0.0 | 1.6 | 0.00 | 0.00 | 0.00 | 90 | 1015.4 |
| 20260508003525 | 8 | 355 | 0.0 | 1.6 | 0.00 | 0.00 | 0.00 | 90 | 1015.4 |
| 20260508003018 | 8 | 355 | 0.0 | 1.6 | 0.00 | 0.00 | 0.00 | 90 | 1015.4 |
| 20260508002512 | 8 | 355 | 0.0 | 3.2 | 0.00 | 0.00 | 0.00 | 90 | 1015.4 |
| 20260508002005 | 8 | 355 | 0.0 | 3.2 | 0.00 | 0.00 | 0.00 | 90 | 1015.4 |
| 20260508001506 | 8 | 19 | 0.0 | 1.6 | 0.00 | 0.00 | 0.00 | 89 | 1015.4 |
| 20260508001006 | 8 | 19 | 0.0 | 1.6 | 0.00 | 0.00 | 0.00 | 89 | 1015.5 |
| 20260508000506 | 8 | 19 | 0.0 | 1.6 | 0.00 | 0.00 | 0.00 | 89 | 1015.7 |
| 20260508000005 | 8 | 19 | 0.0 | 3.2 | 0.00 | 0.00 | 0.00 | 89 | 1015.7 |
| 20260507235503 | 8 | 19 | 0.0 | 3.2 | 0.00 | 0.00 | 0.00 | 89 | 1015.7 |
| 20260507235004 | 8 | 351 | 0.0 | 3.2 | 0.00 | 0.00 | 0.00 | 88 | 1015.7 |
| 20260507234503 | 8 | 351 | 0.0 | 3.2 | 0.00 | 0.00 | 0.00 | 88 | 1015.7 |
| 20260507234003 | 8 | 351 | 0.0 | 1.6 | 0.00 | 0.00 | 0.00 | 89 | 1015.8 |
| 20260507233504 | 9 | 351 | 0.0 | 1.6 | 0.00 | 0.00 | 0.00 | 88 | 1015.8 |
| 20260507233003 | 9 | 69 | 0.0 | 1.6 | 0.00 | 0.00 | 0.00 | 88 | 1015.8 |
| 20260507232504 | 9 | 69 | 0.0 | 1.6 | 0.00 | 0.00 | 0.00 | 88 | 1015.8 |
| 20260507232005 | 9 | 69 | 0.0 | 1.6 | 0.00 | 0.00 | 0.00 | 88 | 1015.8 |
| 20260507231503 | 9 | 69 | 0.0 | 0.0 | 0.00 | 0.00 | 0.00 | 88 | 1015.9 |
| 20260507231003 | 9 | 69 | 0.0 | 0.0 | 0.00 | 0.00 | 0.00 | 87 | 1015.9 |
| 20260507230502 | 9 | 69 | 0.0 | 0.0 | 0.00 | 0.00 | 0.00 | 87 | 1015.9 |
| 20260507230239 | 9 | 69 | 0.0 | 0.0 | 0.00 | 0.00 | 0.00 | 87 | 1015.9 |
| 20260507225506 | 9 | 69 | 0.0 | 0.0 | 0.00 | 0.00 | 0.00 | 87 | 1015.9 |
| 20260507225001 | 9 | 69 | 0.0 | 0.0 | 0.00 | 0.00 | 0.00 | 87 | 1016.0 |
| 20260507224455 | 9 | 69 | 0.0 | 0.0 | 0.00 | 0.00 | 0.00 | 86 | 1016.0 |
| 20260507223949 | 9 | 69 | 0.0 | 0.0 | 0.00 | 0.00 | 0.00 | 86 | 1016.0 |
| 20260507223446 | 10 | 69 | 0.0 | 0.0 | 0.00 | 0.00 | 0.00 | 86 | 1016.0 |
| 20260507222947 | 10 | 69 | 0.0 | 0.0 | 0.00 | 0.00 | 0.00 | 86 | 1016.1 |
| 20260507222446 | 10 | 69 | 0.0 | 0.0 | 0.00 | 0.00 | 0.00 | 86 | 1016.1 |
| 20260507221949 | 10 | 69 | 0.0 | 0.0 | 0.00 | 0.00 | 0.00 | 86 | 1016.0 |
| 20260507221444 | 10 | 69 | 0.0 | 1.6 | 0.00 | 0.00 | 0.00 | 86 | 1016.1 |
| 20260507221223 | 10 | 69 | 0.0 | 1.6 | 0.00 | 0.00 | 0.00 | 86 | 1016.1 |
| 20260507220444 | 10 | 71 | 0.0 | 0.0 | 0.00 | 0.00 | 0.00 | 85 | 1016.2 |
| 20260507215945 | 10 | 71 | 0.0 | 1.6 | 0.00 | 0.00 | 0.00 | 85 | 1016.2 |
| 20260507215445 | 10 | 71 | 0.0 | 1.6 | 0.00 | 0.00 | 0.00 | 85 | 1016.2 |
| 20260507214946 | 10 | 71 | 0.0 | 0.0 | 0.00 | 0.00 | 0.00 | 85 | 1016.2 |
| 20260507214445 | 10 | 71 | 0.0 | 1.6 | 0.00 | 0.00 | 0.00 | 85 | 1016.1 |
| 20260507213944 | 10 | 71 | 0.0 | 1.6 | 0.00 | 0.00 | 0.00 | 85 | 1016.1 |
| 20260507213447 | 10 | 128 | 0.0 | 1.6 | 0.00 | 0.00 | 0.00 | 84 | 1016.1 |
| 20260507212942 | 10 | 128 | 0.0 | 1.6 | 0.00 | 0.00 | 0.00 | 84 | 1016.1 |
| 20260507212442 | 10 | 128 | 0.0 | 1.6 | 0.00 | 0.00 | 0.00 | 84 | 1016.1 |
| 20260507211940 | 10 | 42 | 0.0 | 1.6 | 0.00 | 0.00 | 0.00 | 84 | 1016.0 |
| 20260507211440 | 10 | 42 | 0.0 | 1.6 | 0.00 | 0.00 | 0.00 | 84 | 1016.0 |
| 20260507210941 | 10 | 42 | 0.0 | 1.6 | 0.00 | 0.00 | 0.00 | 83 | 1016.0 |
| 20260507210439 | 10 | 42 | 0.0 | 1.6 | 0.00 | 0.00 | 0.00 | 83 | 1015.9 |
| 20260507205944 | 10 | 42 | 0.0 | 1.6 | 0.00 | 0.00 | 0.00 | 83 | 1015.8 |
| 20260507205440 | 10 | 42 | 0.0 | 1.6 | 0.00 | 0.00 | 0.00 | 82 | 1015.9 |
| 20260507204938 | 10 | 42 | 0.0 | 1.6 | 0.00 | 0.00 | 0.00 | 82 | 1015.9 |
| 20260507204436 | 10 | 38 | 0.0 | 3.2 | 0.00 | 0.00 | 0.00 | 82 | 1015.8 |
| 20260507203937 | 10 | 38 | 0.0 | 3.2 | 0.00 | 0.00 | 0.00 | 82 | 1015.8 |
| 20260507203719 | 10 | 38 | 0.0 | 1.6 | 0.00 | 0.00 | 0.00 | 82 | 1015.8 |
| 20260507202937 | 10 | 38 | 0.0 | 3.2 | 0.00 | 0.00 | 0.00 | 81 | 1015.8 |
| 20260507202438 | 10 | 38 | 0.0 | 3.2 | 0.00 | 0.00 | 0.00 | 81 | 1015.7 |
| 20260507201936 | 10 | 38 | 0.0 | 1.6 | 0.00 | 0.00 | 0.00 | 81 | 1015.6 |
| 20260507201712 | 10 | 43 | 0.0 | 4.8 | 0.00 | 0.00 | 0.00 | 80 | 1015.5 |
| 20260507200934 | 10 | 43 | 0.0 | 4.8 | 0.00 | 0.00 | 0.00 | 80 | 1015.4 |
| 20260507200434 | 11 | 21 | 0.0 | 3.2 | 0.00 | 0.00 | 0.00 | 79 | 1015.3 |
| 20260507200212 | 11 | 88 | 0.0 | 4.8 | 0.00 | 0.00 | 0.00 | 79 | 1015.2 |
| 20260507195433 | 11 | 59 | 0.0 | 4.8 | 0.00 | 0.00 | 0.00 | 78 | 1015.2 |
| 20260507194930 | 11 | 56 | 0.0 | 3.2 | 0.00 | 0.00 | 0.00 | 77 | 1015.1 |
| 20260507194431 | 11 | 61 | 0.0 | 3.2 | 0.00 | 0.00 | 0.00 | 77 | 1015.1 |
| 20260507193931 | 11 | 70 | 0.0 | 3.2 | 0.00 | 0.00 | 0.00 | 76 | 1015.0 |
| 20260507193428 | 11 | 70 | 0.0 | 3.2 | 0.00 | 0.00 | 0.00 | 76 | 1015.0 |
| 20260507192928 | 11 | 184 | 0.0 | 4.8 | 0.00 | 0.00 | 0.00 | 75 | 1015.0 |
| 20260507192429 | 11 | 143 | 1.6 | 9.7 | 0.00 | 0.00 | 0.00 | 75 | 1015.1 |
| 20260507191928 | 11 | 101 | 1.6 | 9.7 | 0.00 | 0.00 | 0.00 | 74 | 1015.1 |
| 20260507191426 | 11 | 139 | 1.6 | 4.8 | 0.00 | 0.00 | 0.00 | 74 | 1015.0 |
| 20260507190927 | 12 | 217 | 1.6 | 6.4 | 0.00 | 0.00 | 0.00 | 73 | 1015.0 |
| 20260507190427 | 12 | 60 | 1.6 | 9.7 | 0.00 | 0.00 | 0.00 | 72 | 1015.1 |
| 20260507185923 | 12 | 108 | 1.6 | 12.9 | 0.00 | 0.00 | 0.00 | 72 | 1015.0 |
| 20260507185704 | 12 | 96 | 1.6 | 12.9 | 0.00 | 0.00 | 0.00 | 71 | 1015.0 |
| 20260507184922 | 12 | 232 | 1.6 | 12.9 | 0.00 | 0.00 | 0.00 | 71 | 1015.0 |
| 20260507184421 | 12 | 213 | 1.6 | 12.9 | 0.00 | 0.00 | 0.00 | 71 | 1015.0 |
| 20260507183922 | 12 | 186 | 1.6 | 8.0 | 0.00 | 0.00 | 0.00 | 70 | 1015.0 |
| 20260507183421 | 12 | 108 | 1.6 | 8.0 | 0.00 | 0.00 | 0.00 | 70 | 1015.0 |
| 20260507182922 | 12 | 126 | 1.6 | 14.5 | 0.00 | 0.00 | 0.00 | 70 | 1014.8 |
| 20260507182424 | 12 | 201 | 1.6 | 14.5 | 0.00 | 0.00 | 0.00 | 69 | 1014.8 |
| 20260507181923 | 12 | 69 | 1.6 | 9.7 | 0.00 | 0.00 | 0.00 | 69 | 1014.8 |
| 20260507181423 | 12 | 124 | 1.6 | 9.7 | 0.00 | 0.00 | 0.00 | 68 | 1014.7 |
| 20260507180922 | 12 | 102 | 1.6 | 9.7 | 0.00 | 0.00 | 0.00 | 68 | 1014.7 |
| 20260507180421 | 12 | 190 | 1.6 | 9.7 | 0.00 | 0.00 | 0.00 | 68 | 1014.7 |
| 20260507175921 | 12 | 203 | 1.6 | 9.7 | 0.00 | 0.00 | 0.00 | 67 | 1014.6 |
| 20260507175421 | 12 | 166 | 1.6 | 6.4 | 0.00 | 0.00 | 0.00 | 67 | 1014.6 |
| 20260507174920 | 12 | 169 | 1.6 | 4.8 | 0.00 | 0.00 | 0.00 | 67 | 1014.6 |
| 20260507174418 | 12 | 196 | 1.6 | 6.4 | 0.00 | 0.00 | 0.00 | 67 | 1014.6 |
| 20260507173917 | 12 | 169 | 1.6 | 11.3 | 0.00 | 0.00 | 0.00 | 67 | 1014.6 |
| 20260507173416 | 13 | 120 | 1.6 | 11.3 | 0.00 | 0.00 | 0.00 | 67 | 1014.5 |
| 20260507173159 | 13 | 98 | 1.6 | 11.3 | 0.00 | 0.00 | 0.00 | 67 | 1014.5 |
| 20260507172415 | 13 | 61 | 1.6 | 11.3 | 0.00 | 0.00 | 0.00 | 66 | 1014.5 |
| 20260507171917 | 13 | 62 | 3.2 | 11.3 | 0.00 | 0.00 | 0.00 | 66 | 1014.5 |
| 20260507171658 | 13 | 148 | 1.6 | 9.7 | 0.00 | 0.00 | 0.00 | 65 | 1014.5 |
| 20260507170916 | 13 | 232 | 1.6 | 9.7 | 0.00 | 0.00 | 0.00 | 65 | 1014.5 |
| 20260507170414 | 13 | 69 | 0.0 | 4.8 | 0.00 | 0.00 | 0.00 | 65 | 1014.5 |
| 20260507165915 | 13 | 219 | 1.6 | 6.4 | 0.00 | 0.00 | 0.00 | 64 | 1014.4 |
| 20260507165413 | 13 | 55 | 1.6 | 8.0 | 0.00 | 0.00 | 0.00 | 64 | 1014.5 |
| 20260507164910 | 13 | 200 | 1.6 | 8.0 | 0.00 | 0.00 | 0.00 | 63 | 1014.5 |
| 20260507164409 | 13 | 115 | 1.6 | 6.4 | 0.00 | 0.00 | 0.00 | 63 | 1014.4 |
| 20260507163909 | 13 | 99 | 1.6 | 6.4 | 0.00 | 0.00 | 0.00 | 63 | 1014.5 |
| 20260507163410 | 13 | 298 | 1.6 | 4.8 | 0.00 | 0.00 | 0.00 | 64 | 1014.5 |
| 20260507163152 | 14 | 240 | 1.6 | 6.4 | 0.00 | 0.00 | 0.00 | 63 | 1014.5 |
| 20260507162411 | 14 | 195 | 1.6 | 6.4 | 0.00 | 0.00 | 0.00 | 61 | 1014.5 |
| 20260507161910 | 14 | 146 | 1.6 | 12.9 | 0.00 | 0.00 | 0.00 | 61 | 1014.4 |
| 20260507161412 | 14 | 221 | 1.6 | 12.9 | 0.00 | 0.00 | 0.00 | 61 | 1014.4 |
| 20260507161155 | 14 | 90 | 0.0 | 4.8 | 0.00 | 0.00 | 0.00 | 61 | 1014.5 |
| 20260507160410 | 14 | 175 | 1.6 | 3.2 | 0.00 | 0.00 | 0.00 | 61 | 1014.5 |
| 20260507155905 | 14 | 41 | 1.6 | 6.4 | 0.00 | 0.00 | 0.00 | 61 | 1014.6 |
| 20260507155403 | 14 | 83 | 1.6 | 6.4 | 0.00 | 0.00 | 0.00 | 61 | 1014.6 |
| 20260507154902 | 14 | 188 | 1.6 | 6.4 | 0.00 | 0.00 | 0.00 | 62 | 1014.6 |
| 20260507154404 | 15 | 196 | 1.6 | 6.4 | 0.00 | 0.00 | 0.00 | 61 | 1014.6 |
| 20260507153859 | 15 | 21 | 1.6 | 6.4 | 0.00 | 0.00 | 0.00 | 61 | 1014.5 |
| 20260507153635 | 15 | 111 | 1.6 | 4.8 | 0.00 | 0.00 | 0.00 | 61 | 1014.6 |
| 20260507153129 | 15 | 333 | 1.6 | 4.8 | 0.00 | 0.00 | 0.00 | 62 | 1014.6 |
| 20260507152341 | 15 | 351 | 1.6 | 6.4 | 0.00 | 0.00 | 0.00 | 61 | 1014.7 |
| 20260507151834 | 15 | 183 | 1.6 | 6.4 | 0.00 | 0.00 | 0.00 | 61 | 1014.7 |
| 20260507151338 | 15 | 132 | 1.6 | 6.4 | 0.00 | 0.00 | 0.00 | 62 | 1014.7 |
| 20260507150835 | 15 | 76 | 1.6 | 6.4 | 0.00 | 0.00 | 0.00 | 65 | 1014.7 |
| 20260507150616 | 14 | 53 | 1.6 | 6.4 | 0.00 | 0.00 | 0.00 | 65 | 1014.7 |
| 20260507145835 | 14 | 41 | 1.6 | 9.7 | 0.00 | 0.00 | 0.00 | 66 | 1014.7 |
| 20260507145335 | 14 | 292 | 1.6 | 9.7 | 0.00 | 0.00 | 0.00 | 66 | 1014.7 |
| 20260507144834 | 14 | 304 | 1.6 | 6.4 | 0.00 | 0.00 | 0.00 | 66 | 1014.7 |
| 20260507144334 | 14 | 45 | 1.6 | 6.4 | 0.00 | 0.00 | 0.00 | 67 | 1014.7 |
| 20260507143834 | 13 | 108 | 1.6 | 6.4 | 0.00 | 0.00 | 0.00 | 68 | 1014.7 |
| 20260507143333 | 13 | 98 | 1.6 | 6.4 | 0.00 | 0.00 | 0.00 | 67 | 1014.8 |
| 20260507142831 | 13 | 120 | 1.6 | 6.4 | 0.00 | 0.00 | 0.00 | 69 | 1014.8 |
| 20260507142331 | 13 | 146 | 1.6 | 6.4 | 0.00 | 0.00 | 0.00 | 69 | 1014.8 |
| 20260507142109 | 13 | 349 | 1.6 | 6.4 | 0.00 | 0.00 | 0.00 | 69 | 1014.9 |
| 20260507141331 | 13 | 125 | 1.6 | 6.4 | 0.00 | 0.00 | 0.00 | 68 | 1014.9 |
| 20260507141119 | 13 | 105 | 1.6 | 6.4 | 0.00 | 0.00 | 0.00 | 68 | 1015.0 |
| 20260507140333 | 13 | 38 | 0.0 | 6.4 | 0.00 | 0.00 | 0.00 | 67 | 1015.0 |
| 20260507135834 | 13 | 142 | 0.0 | 4.8 | 0.00 | 0.00 | 0.00 | 68 | 1015.0 |
| 20260507135354 | 13 | 282 | 0.0 | 1.6 | 0.00 | 0.00 | 0.00 | 67 | 1015.0 |
| 20260507135346 | 13 | 19 | 0.0 | 4.8 | 0.00 | 0.00 | 0.00 | 67 | 1015.0 |
| 20260507134333 | 13 | 282 | 0.0 | 1.6 | 0.00 | 0.00 | 0.00 | 67 | 1015.0 |
| 20260507133832 | 13 | 282 | 0.0 | 3.2 | 0.00 | 0.00 | 0.00 | 67 | 1015.0 |
| 20260507133334 | 13 | 282 | 0.0 | 3.2 | 0.00 | 0.00 | 0.00 | 67 | 1015.0 |
| 20260507132831 | 13 | 282 | 0.0 | 1.6 | 0.00 | 0.00 | 0.00 | 68 | 1015.1 |
| 20260507132334 | 13 | 282 | 0.0 | 1.6 | 0.00 | 0.00 | 0.00 | 68 | 1015.1 |
| 20260507132114 | 13 | 282 | 0.0 | 1.6 | 0.00 | 0.00 | 0.00 | 67 | 1015.1 |
| 20260507131613 | 13 | 282 | 0.0 | 1.6 | 0.00 | 0.00 | 0.00 | 67 | 1015.1 |
| 20260507130832 | 13 | 282 | 0.0 | 1.6 | 0.00 | 0.00 | 0.00 | 67 | 1015.1 |
| 20260507130611 | 13 | 282 | 0.0 | 3.2 | 0.00 | 0.00 | 0.00 | 68 | 1015.1 |
| 20260507130110 | 13 | 282 | 0.0 | 3.2 | 0.00 | 0.00 | 0.00 | 68 | 1015.1 |
| 20260507125332 | 13 | 203 | 0.0 | 1.6 | 0.00 | 0.00 | 0.00 | 67 | 1015.1 |
| 20260507124833 | 13 | 200 | 0.0 | 3.2 | 0.00 | 0.00 | 0.00 | 67 | 1015.2 |
| 20260507124333 | 13 | 201 | 0.0 | 3.2 | 0.00 | 0.00 | 0.00 | 67 | 1015.2 |
| 20260507123833 | 13 | 201 | 0.0 | 3.2 | 0.00 | 0.00 | 0.00 | 67 | 1015.3 |
| 20260507123332 | 13 | 201 | 0.0 | 3.2 | 0.00 | 0.00 | 0.00 | 67 | 1015.2 |
| 20260507123111 | 13 | 201 | 0.0 | 3.2 | 0.00 | 0.00 | 0.00 | 64 | 1015.3 |
| 20260507122325 | 13 | 94 | 0.0 | 3.2 | 0.00 | 0.00 | 0.00 | 65 | 1015.2 |
| 20260507121825 | 13 | 298 | 1.6 | 3.2 | 0.00 | 0.00 | 0.00 | 65 | 1015.3 |
| 20260507121606 | 13 | 298 | 1.6 | 4.8 | 0.00 | 0.00 | 0.00 | 65 | 1015.3 |
| 20260507120823 | 13 | 188 | 1.6 | 8.0 | 0.00 | 0.00 | 0.00 | 64 | 1015.4 |
| 20260507120326 | 13 | 143 | 1.6 | 8.0 | 0.00 | 0.00 | 0.00 | 65 | 1015.4 |
| 20260507115821 | 13 | 244 | 1.6 | 4.8 | 0.00 | 0.00 | 0.00 | 65 | 1015.4 |
| 20260507115322 | 12 | 190 | 1.6 | 8.0 | 0.00 | 0.00 | 0.00 | 67 | 1015.4 |
| 20260507114821 | 12 | 142 | 1.6 | 8.0 | 0.00 | 0.00 | 0.00 | 66 | 1015.4 |
| 20260507114321 | 12 | 136 | 1.6 | 4.8 | 0.00 | 0.00 | 0.00 | 66 | 1015.4 |
| 20260507113817 | 12 | 188 | 1.6 | 4.8 | 0.00 | 0.00 | 0.00 | 67 | 1015.4 |
| 20260507113556 | 12 | 125 | 0.0 | 4.8 | 0.00 | 0.00 | 0.00 | 67 | 1015.3 |
| 20260507112838 | 12 | 219 | 1.6 | 6.4 | 0.00 | 0.00 | 0.00 | 67 | 1015.4 |
| 20260507112830 | 12 | 121 | 1.6 | 6.4 | 0.00 | 0.00 | 0.00 | 66 | 1015.4 |
| 20260507111818 | 12 | 33 | 0.0 | 4.8 | 0.00 | 0.00 | 0.00 | 67 | 1015.4 |
| 20260507111318 | 12 | 5 | 0.0 | 1.6 | 0.00 | 0.00 | 0.00 | 68 | 1015.4 |
| 20260507111053 | 12 | 213 | 0.0 | 4.8 | 0.00 | 0.00 | 0.00 | 67 | 1015.4 |
| 20260507110553 | 12 | 213 | 1.6 | 8.0 | 0.00 | 0.00 | 0.00 | 65 | 1015.5 |
| 20260507105810 | 13 | 59 | 1.6 | 8.0 | 0.00 | 0.00 | 0.00 | 65 | 1015.5 |
| 20260507105311 | 13 | 79 | 0.0 | 4.8 | 0.00 | 0.00 | 0.00 | 66 | 1015.5 |
| 20260507104808 | 13 | 119 | 0.0 | 3.2 | 0.00 | 0.00 | 0.00 | 67 | 1015.5 |
| 20260507104310 | 13 | 121 | 1.6 | 4.8 | 0.00 | 0.00 | 0.00 | 66 | 1015.6 |
| 20260507103810 | 13 | 136 | 1.6 | 4.8 | 0.00 | 0.00 | 0.00 | 66 | 1015.5 |
| 20260507103309 | 13 | 56 | 0.0 | 3.2 | 0.00 | 0.00 | 0.00 | 67 | 1015.5 |